Left ArrowRight Arrow

38.83388, -104.82136

Hourly Observations for September 24, 2018

Temp ( °F °C ) Dew Point ( °F °C ) Humidity (%) Winds ( mph kmh ) Pressure ( in mb ) Visibility ( mi km ) Precip ( " mm )
12:54 am 00:54 Mostly Clear 56 13.3 28 -2.2 34 34 NNE 9 15 29.71 1006 10 16 0.00 0.00
1:54 am 01:54 Mostly Clear 56 13.3 29 -1.7 36 36 N 7 11 29.72 1006 10 16 0.00 0.00
2:54 am 02:54 Mostly Clear 60 15.6 29 -1.7 31 31 NW 9 15 29.69 1005 10 16 0.00 0.00
3:54 am 03:54 Mostly Clear 66 18.9 29 -1.7 25 25 NNW 10 17 29.68 1005 10 16 0.00 0.00
4:54 am 04:54 Mostly Clear 65 18.3 30 -1.1 27 27 W 9 15 29.70 1006 10 16 0.00 0.00
5:54 am 05:54 Mostly Clear 63 17.2 31 -0.6 30 30 W 8 13 29.71 1006 10 16 0.00 0.00
6:54 am 06:54 Partly Cloudy 59 15 32 0 36 36 N 7 11 29.76 1008 10 16 0.00 0.00
7:26 am 07:26 Partly Cloudy 61 16.1 33 0.6 35 35 NNE 22 35 29.74 1007 10 16 0.00 0.00
7:54 am 07:54 Partly Cloudy 59 15 38 3.3 46 46 NNE 18 30 29.82 1010 10 16 0.00 0.00
8:54 am 08:54 Partly Cloudy 62 16.7 40 4.4 44 44 N 17 28 29.81 1010 10 16 0.00 0.00
9:54 am 09:54 Mostly Cloudy 66 18.9 40 4.4 39 39 NNW 7 11 29.82 1010 10 16 0.00 0.00
10:54 am 10:54 Mostly Cloudy 68 20 41 5 38 38 VRB 5 7 29.81 1010 10 16 0.00 0.00
11:54 am 11:54 Mostly Cloudy 73 22.8 39 3.9 29 29 S 13 20 29.81 1009 10 16 0.00 0.00
12:54 pm 12:54 Mostly Cloudy 75 23.9 40 4.4 28 28 S 24 39 29.78 1009 10 16 0.00 0.00
1:31 pm 13:31 Mostly Cloudy with Rain 66 18.9 46 7.8 49 49 SW 7 11 29.71 1006 10 16 0.01 0.25
1:54 pm 13:54 Mostly Cloudy with Light Rain 63 17.2 50 10 63 63 N 13 20 29.87 1012 10 16 0.01 0.25
2:54 pm 14:54 Partly Cloudy 72 22.2 42 5.6 34 34 E 12 19 29.76 1008 10 16 0.00 0.03
3:54 pm 15:54 Mostly Cloudy with Nearby Thunderstorms 70 21.1 43 6.1 38 38 NW 14 22 29.75 1008 9 14 0.00 0.03
4:11 pm 16:11 Mostly Cloudy with Nearby Thunderstorms 64 17.8 48 8.9 56 56 NW 18 30 29.68 1005 10 16 0.00 0.03
4:22 pm 16:22 Mostly Cloudy with Light Rain 66 19 48 9 52 52 VRB 3 6 29.62 1003 10 16 0.00 0.00
4:54 pm 16:54 Partly Cloudy 71 21.7 45 7.2 39 39 NE 7 11 29.74 1007 10 16 0.00 0.03
5:54 pm 17:54 Mostly Cloudy 68 20 45 7.2 44 44 E 6 9 29.78 1009 10 16 0.00 0.00
6:01 pm 18:01 Mostly Cloudy with Nearby Thunderstorms 68 20 46 7.8 45 45 NE 6 9 29.65 1004 10 16 0.00 0.03
6:25 pm 18:25 Mostly Cloudy 67 19.4 45 7.2 45 45 E 7 11 29.65 1004 10 16 0.00 0.03
6:54 pm 18:54 Mostly Cloudy 64 17.8 46 7.8 52 52 E 7 11 29.81 1009 10 16 0.00 0.03
7:54 pm 19:54 Mostly Cloudy 62 16.7 45 7.2 54 54 NNE 5 7 29.83 1010 10 16 0.00 0.00
8:54 pm 20:54 Mostly Cloudy 62 16.7 44 6.7 52 52 S 5 7 29.84 1011 10 16 0.00 0.00
9:54 pm 21:54 Partly Cloudy 61 16.1 43 6.1 52 52 SSE 10 17 29.83 1010 10 16 0.00 0.00
10:54 pm 22:54 Mostly Clear 61 16.1 41 5 48 48 S 12 19 29.83 1010 10 16 0.00 0.00
11:54 pm 23:54 Mostly Clear 58 14.4 41 5 53 53 S 12 19 29.82 1010 10 16 0.00 0.00

Powered by Vaisala Xweather